This demonstration page uses our WeatherBlox Daily Observations layout. Learn more.

Left ArrowRight Arrow

Hourly Observations for November 21, 2018

Temp ( °F °C ) Dew Point ( °F °C ) Humidity (%) Winds ( mph kmh ) Pressure ( in mb ) Visibility ( mi km ) Precip ( " mm )
12:53 am 00:53 Clear 32 undefined 26 -3.3 79 79 SW 12 19 29.99 1016 10 16 N/A
1:53 am 01:53 Clear 31 -0.6 25 -3.9 79 79 SW 16 26 29.97 1015 10 16 N/A
2:53 am 02:53 Clear 31 -0.6 25 -3.9 79 79 SW 7 11 29.97 1015 10 16 N/A
3:53 am 03:53 Clear 31 -0.6 25 -3.9 79 79 N N/A 29.96 1015 10 16 N/A
4:53 am 04:53 Clear 27 -2.8 23 -5 85 85 WSW 9 15 29.97 1015 10 16 N/A
5:53 am 05:53 Clear 28 -2.2 24 -4.4 85 85 WSW 5 7 29.97 1015 10 16 N/A
6:53 am 06:53 Clear 27 -2.8 24 -4.4 89 89 SW 12 19 29.98 1015 10 16 N/A
7:53 am 07:53 Sunny 25 -3.9 23 -5 92 92 WNW 6 9 29.98 1015 10 16 N/A
8:53 am 08:53 Sunny 30 -1.1 25 -3.9 82 82 SW 8 13 29.97 1015 10 16 N/A
9:53 am 09:53 Sunny 36 2.2 29 -1.7 76 76 SW 7 11 29.96 1014 10 16 N/A
10:53 am 10:53 Sunny 47 8.3 26 -3.3 44 44 SW 16 26 29.93 1014 10 16 N/A
11:53 am 11:53 Sunny 51 10.6 23 -5 33 33 WSW 18 30 29.89 1012 10 16 N/A
12:53 pm 12:53 Sunny 52 11.1 26 -3.3 37 37 WSW 16 26 29.87 1012 10 16 N/A
1:53 pm 13:53 Sunny 56 13.3 23 -5 28 28 SW 18 30 29.85 1011 10 16 N/A
2:53 pm 14:53 Sunny 55 12.8 24 -4.4 30 30 W 7 11 29.84 1011 10 16 N/A
3:53 pm 15:53 Sunny 49 9.4 24 -4.4 38 38 WSW 8 13 29.85 1011 10 16 N/A
4:53 pm 16:53 Clear 43 6.1 24 -4.4 47 47 W 7 11 29.85 1011 10 16 N/A
5:53 pm 17:53 Clear 41 5 23 -5 49 49 SW 10 17 29.83 1010 10 16 N/A
6:53 pm 18:53 Clear 37 2.8 24 -4.4 59 59 WSW 9 15 29.84 1011 10 16 N/A
7:53 pm 19:53 Clear 37 2.8 25 -3.9 62 62 WSW 9 15 29.84 1011 10 16 N/A
8:53 pm 20:53 Clear 34 1.1 24 -4.4 67 67 SW 6 9 29.83 1010 10 16 N/A
9:53 pm 21:53 Clear 34 1.1 25 -3.9 70 70 SW 7 11 29.81 1010 10 16 N/A
10:53 pm 22:53 Clear 34 1.1 26 -3.3 73 73 WSW 3 6 29.78 1009 10 16 N/A
11:53 pm 23:53 Clear 40 4.4 24 -4.4 53 53 SW 13 20 29.75 1007 10 16 N/A

Powered by AerisWeather